Cloud_Cover
100 100 100 100 100 100 100 97 97 100 100 100 100 100 100 100 100 100 92 98 17 84 76 100 100 100 98 98 100 100 100 100
100 100 100 100 78 100 100 100 89 99 100 100 100 100 100 93 100 100 100 100 55 100 9 86 100 100 100 100 100 100 100 100
100 100 100 100 9 99 100 100 99 100 100 100 100 64 67 84 70 54 86 100 99 98 68 51 97 100 100 100 100 100 100 100
100 100 100 47 41 100 100 100 100 100 100 100 100 100 93 60 100 100 100 100 100 100 100 92 100 100 100 100 97 99 99 92
100 100 100 91 5 91 99 100 100 100 100 100 100 86 98 100 100 100 100 100 100 100 95 83 94 94 100 85 100 100 100 100
100 100 100 88 6 21 91 100 100 100 100 100 100 100 93 100 58 98 100 100 100 100 100 100 100 100 100 66 79 100 100 100
100 100 100 100 100 100 100 100 100 100 100 100 100 100 100 100 100 100 100 100 100 100 100 99 73 86 73 40 82 79 97 80
100 100 100 100 100 100 100 100 100 100 100 100 100 100 100 100 100 100 100 100 100 100 100 100 88 98 51 62 61 88 73 43
100 100 100 100 100 100 100 100 100 100 100 100 100 100 100 100 100 100 100 100 100 100 100 100 100 100 100 100 75 99 91 7
100 100 100 100 100 100 100 100 100 100 100 100 100 100 100 100 100 100 100 85 100 100 100 100 100 100 100 100 100 100 100 98
100 100 100 99 100 100 100 100 100 100 100 100 100 100 100 100 100 100 93 100 100 100 100 100 100 100 100 100 100 100 100 100
6 80 95 2 3 5 7 82 100 100 100 100 100 100 100 100 100 100 100 100 100 100 100 100 100 100 100 100 100 100 100 100
3 2 5 80 13 6 6 100 100 100 100 100 100 100 100 100 100 100 100 100 100 100 100 100 100 100 100 100 100 100 100 100
15 32 1 100 10 82 96 100 100 100 100 100 100 100 100 100 100 100 100 100 100 100 100 100 100 100 100 100 100 100 100 100
98 100 96 100 96 100 100 100 100 100 100 100 100 100 100 100 100 100 100 100 100 100 100 100 100 100 100 100 100 100 100 100
88 100 100 100 100 100 100 100 100 100 100 100 100 100 100 100 100 100 100 100 100 100 100 100 100 100 100 100 100 100 100 100
100 100 100 100 100 79 100 100 100 100 100 100 100 100 100 100 100 100 100 100 100 100 100 100 100 100 100 100 100 100 100 100
100 100 100 100 100 100 100 100 100 100 100 100 100 100 100 100 100 100 100 100 100 100 100 100 100 100 100 100 100 100 100 100
100 73 99 100 100 100 100 100 100 100 100 100 100 100 100 100 100 100 100 100 100 100 100 100 100 100 100 100 100 100 100 100